{"data":{"norad_id":67138,"epoch":"2026-05-25T02:28:50.412864Z","epoch_age_seconds":66286,"freshness":"FRESH","line1":"1 67138U 25301F   26145.10336126  .00004238  00000+0  43140-3 0  9997","line2":"2 67138  51.8948  77.0931 0008920 326.2956  33.7443 14.92574742 25366","mean_motion":14.92574742,"eccentricity":0.000892,"inclination_deg":51.8948,"raan_deg":77.0931,"arg_perigee_deg":326.2956,"mean_anomaly_deg":33.7443,"bstar":0.0004314,"rev_number":2536,"period_min":96.477580618204,"perigee_km":583.69521724464,"apogee_km":596.12621436964,"semimajor_km":6968.0477158071,"source":"CELESTRAK","updated_at":"2026-05-25T13:38:06.749278Z"}}